Wind_Speed
9 10 9 8 8 8 11 11 11 12 11 11 12 13 12 12 9 8 8 8 7 8 11 12 10 10 10 11 13 13 14 11 12 16 18 19 24 22 30 33 35 41 46 49 50
11 11 10 9 8 9 10 11 12 13 12 12 12 14 13 12 11 10 9 9 9 11 11 11 10 10 12 13 17 15 13 14 14 16 18 20 23 27 33 37 41 44 48 50 52
12 13 11 10 11 9 11 10 10 12 13 13 12 14 14 13 13 12 11 11 12 12 12 11 10 10 12 13 15 18 18 16 16 15 19 22 25 29 35 40 43 49 55 59 52
15 14 13 12 12 11 10 10 9 11 12 12 14 14 15 14 15 14 14 13 13 13 12 11 11 11 14 14 15 17 19 19 16 18 19 23 26 30 35 39 45 51 59 50 34
15 15 15 13 12 11 10 10 9 9 12 12 13 15 15 15 16 15 16 15 14 12 12 12 11 12 13 13 14 16 20 19 19 20 19 23 28 31 36 40 47 54 51 33 28
18 17 16 16 13 12 11 10 8 7 8 11 13 15 16 15 16 16 16 15 12 11 12 11 12 12 12 13 14 16 17 19 20 19 19 23 28 31 34 40 48 53 37 31 34
22 20 18 18 15 14 12 10 7 6 5 7 12 15 17 16 16 15 14 13 12 11 11 11 12 12 12 12 14 15 17 19 20 20 19 22 27 30 36 41 47 49 32 32 35
23 22 21 20 17 14 13 12 13 9 5 6 13 16 17 17 17 16 15 14 12 12 13 12 13 14 14 14 14 13 16 17 20 19 20 24 27 32 36 40 45 47 36 32 33
27 24 22 23 21 16 14 13 13 13 13 16 19 18 17 17 17 17 16 15 13 13 14 14 13 14 14 14 14 15 15 15 17 18 20 24 27 29 35 40 43 45 38 31 30
32 27 25 25 24 19 17 14 18 18 14 15 16 15 16 18 18 18 17 16 15 15 17 16 15 15 17 14 13 14 15 15 18 20 19 24 26 29 35 38 43 45 41 33 29
35 31 29 28 26 23 21 20 22 19 16 14 17 15 16 18 18 19 18 17 17 18 19 18 16 15 17 15 12 14 15 16 18 20 21 23 27 29 33 37 41 45 45 39 35
37 33 32 32 31 27 25 24 22 23 21 18 17 17 16 17 18 19 19 18 18 19 20 19 18 16 17 15 13 14 13 17 19 20 23 24 26 30 30 36 40 44 46 44 39
41 39 36 35 35 30 29 29 27 26 26 22 22 19 16 15 17 17 18 18 18 19 21 20 19 18 18 16 15 15 11 15 20 20 22 25 27 30 31 34 38 42 44 46 45
42 42 40 39 37 33 33 32 29 27 27 24 20 18 15 15 14 16 17 20 21 20 20 20 20 18 18 17 17 17 15 13 19 21 22 26 29 28 30 31 37 40 42 45 48
48 46 44 41 40 37 35 34 35 30 32 26 20 19 17 16 17 16 18 20 22 20 19 19 19 18 18 18 18 18 17 14 16 20 22 24 27 29 31 33 37 41 43 45 49
48 48 47 44 44 41 38 37 38 36 37 31 25 21 20 24 22 20 19 19 21 19 19 19 19 18 18 18 18 18 19 17 14 16 19 22 24 28 30 31 35 38 42 44 47
51 51 49 46 45 43 42 41 41 43 33 32 27 25 24 23 23 22 19 17 19 19 19 19 19 18 18 18 17 18 18 18 16 16 16 20 23 25 28 28 32 36 41 44 46
53 52 51 49 48 46 46 46 48 43 37 32 28 26 27 25 24 24 21 20 21 20 21 19 18 18 18 18 18 18 17 17 16 17 16 19 20 23 26 26 28 34 38 43 46
55 52 51 49 48 48 48 50 50 45 41 36 32 29 28 27 26 25 23 23 22 20 21 23 20 19 18 18 18 18 19 18 18 17 15 16 18 20 22 24 26 29 34 39 43
56 57 57 50 50 48 52 52 50 45 43 40 37 34 32 30 30 29 27 27 27 24 22 21 23 22 20 19 19 19 19 19 19 17 14 14 16 18 21 22 24 27 29 33 38
61 61 58 58 57 56 53 52 51 50 46 44 42 35 31 31 32 30 29 29 29 28 25 24 22 23 23 22 20 19 19 18 18 18 16 12 15 15 18 19 23 24 28 29 33
59 64 63 62 62 59 56 56 53 47 43 39 37 38 39 40 36 35 29 26 28 28 28 25 23 20 25 26 24 22 18 19 19 18 18 14 13 13 15 17 20 23 26 29 29
59 58 64 63 60 58 59 57 55 48 46 46 41 40 41 38 41 35 32 27 28 26 28 27 25 20 20 24 28 25 22 21 21 20 18 16 10 11 14 15 17 21 22 24 24
58 56 58 60 60 60 57 54 57 50 47 47 43 39 36 37 40 40 35 29 29 27 29 28 26 23 22 23 23 24 25 22 21 18 22 14 12 9 12 14 15 18 19 21 23
66 68 67 61 58 55 57 56 54 50 49 49 46 41 38 37 35 38 33 30 30 31 30 31 28 26 24 26 25 23 24 25 20 22 20 17 16 14 12 14 14 15 17 18 20
71 62 61 55 53 53 53 53 51 51 52 51 48 42 41 41 37 37 35 31 31 33 34 33 33 30 27 27 26 23 20 24 23 22 21 22 16 21 12 13 15 15 14 16 17
61 62 64 59 58 58 53 51 50 48 53 54 51 46 44 40 37 42 39 35 35 35 36 34 34 35 32 30 29 22 19 30 26 23 24 20 22 20 16 13 13 15 15 14 13
Wind_Direction
254 253 249 238 236 233 240 242 246 256 261 262 263 255 254 259 246 227 234 256 277 300 290 285 288 278 286 266 247 265 281 284 308 317 321 321 323 319 315 313 314 313 314 309 306
245 246 250 256 245 238 242 242 246 251 259 263 266 260 259 254 241 235 244 261 283 300 294 287 286 279 289 277 263 267 277 289 300 314 319 322 318 317 316 316 315 315 314 310 306
247 248 245 248 256 250 252 246 251 264 267 265 259 262 260 254 247 241 251 271 286 296 297 291 291 293 294 286 277 275 285 288 297 308 316 321 319 318 315 318 321 323 320 320 311
248 248 251 255 254 250 254 250 252 256 253 261 268 261 259 255 252 257 263 271 284 292 288 290 289 297 298 286 281 285 286 288 299 304 316 317 318 318 322 325 330 329 327 325 323
247 252 252 250 259 262 252 252 253 253 261 263 263 262 258 254 259 264 270 274 283 288 283 288 289 298 296 283 281 291 291 283 296 301 316 316 318 323 327 333 337 336 335 339 331
239 247 251 256 256 260 257 247 248 271 285 277 271 270 262 257 259 263 269 275 278 278 275 280 287 292 296 291 281 287 293 285 289 305 315 318 324 327 332 338 345 341 341 339 335
244 240 250 253 251 260 261 248 250 260 271 296 285 275 266 264 263 264 267 270 277 266 272 277 284 287 295 297 284 287 302 283 289 300 316 323 326 332 341 345 349 346 341 341 340
244 240 241 247 252 253 253 257 271 259 284 317 309 286 266 263 263 265 264 265 267 262 271 275 282 290 298 297 287 287 296 284 284 302 319 325 333 341 345 349 352 353 346 342 345
241 239 244 246 247 250 258 250 249 268 293 317 309 279 272 264 262 262 264 266 265 263 271 274 285 294 298 298 289 286 288 274 292 308 324 328 335 343 346 352 352 356 349 340 341
238 240 241 241 246 245 251 253 257 269 286 307 302 284 275 267 263 263 262 265 266 267 270 277 281 292 296 296 288 280 283 281 297 311 323 332 335 341 349 354 356 358 351 339 333
238 239 240 243 244 241 251 256 257 263 278 289 301 290 279 273 267 262 262 262 267 268 270 273 277 286 292 295 280 279 285 291 298 310 321 326 334 337 347 354 356 360 2 350 334
236 237 240 240 240 245 250 250 253 264 270 278 289 296 280 279 275 261 258 261 272 270 270 272 272 280 288 291 279 275 289 301 303 307 315 324 326 332 345 351 355 359 3 3 351
239 238 238 240 240 243 250 254 250 256 267 274 286 283 282 281 279 272 257 262 274 273 269 269 271 275 283 287 278 272 283 299 307 310 312 318 323 329 340 350 354 357 360 3 5
245 239 235 237 238 242 247 250 250 254 263 271 282 281 282 279 284 277 268 268 276 276 270 269 269 272 281 285 278 270 275 292 305 309 315 319 325 325 334 349 353 355 358 0 4
241 236 236 236 237 239 246 248 252 250 261 269 275 269 274 285 286 285 284 279 280 273 270 268 269 272 279 284 280 278 272 276 296 305 314 318 321 327 331 343 349 354 358 1 3
234 235 236 238 238 240 241 244 250 247 251 269 269 262 268 280 287 283 288 286 291 272 272 268 266 270 277 283 283 281 280 280 289 298 310 315 318 325 333 339 345 350 357 2 4
234 235 235 236 239 239 238 241 244 248 258 266 266 259 268 277 282 284 280 283 287 282 272 269 268 270 275 280 282 284 286 285 287 294 306 312 319 327 329 330 342 348 357 4 6
235 234 235 235 236 238 238 239 245 255 258 263 262 258 265 274 272 276 274 273 279 288 267 265 265 270 272 279 282 284 287 281 285 292 303 313 321 329 331 327 338 347 355 4 9
233 231 231 235 236 236 235 241 250 256 258 264 263 261 267 274 270 276 268 271 272 274 279 264 259 268 272 277 286 285 283 284 281 285 295 308 317 325 331 328 334 343 351 360 5
230 229 230 230 231 236 240 245 247 249 256 259 262 262 265 269 269 268 271 268 267 270 272 271 260 260 268 278 283 288 285 281 282 274 285 305 313 324 328 331 330 340 345 354 1
228 229 232 233 235 235 239 244 248 254 259 259 260 261 259 264 260 264 269 264 268 265 271 269 270 257 261 266 275 283 285 283 277 273 278 292 308 319 329 335 334 339 341 348 357
240 234 233 234 235 237 239 243 246 249 252 252 255 260 265 259 263 260 259 262 265 262 264 267 267 268 264 262 264 266 278 280 275 268 272 281 300 319 328 336 338 343 350 347 356
236 242 239 241 244 249 248 247 245 244 248 253 256 260 260 259 260 258 251 259 262 262 257 260 264 268 268 269 267 264 265 270 274 270 265 267 288 309 319 334 343 347 354 357 357
231 237 236 238 243 245 247 246 243 241 244 250 253 261 260 259 257 254 250 252 258 258 256 253 260 263 264 264 266 264 267 263 268 269 261 271 259 286 308 320 338 352 354 2 1
231 236 241 243 239 243 244 244 243 242 244 248 251 255 257 258 254 250 243 248 254 258 257 253 254 259 260 263 266 263 262 259 264 264 266 251 256 260 291 307 327 341 351 354 357
231 233 231 233 240 237 234 237 239 242 244 246 248 252 254 257 253 257 249 248 252 254 257 255 252 256 255 261 264 262 265 258 261 261 261 259 260 254 265 292 306 321 341 348 354
242 238 238 238 236 238 236 240 239 242 243 244 244 245 251 253 255 260 252 251 253 249 255 259 258 254 254 257 262 262 261 258 251 255 258 257 251 260 254 261 285 302 316 336 347
Height
5829 5829 5830 5829 5831 5831 5832 5833 5832 5834 5833 5832 5832 5833 5833 5835 5835 5835 5835 5836 5836 5835 5834 5834 5833 5832 5832 5831 5829 5828 5827 5825 5823 5820 5816 5812 5808 5806 5799 5795 5791 5784 5777 5767 5759
5826 5826 5828 5830 5829 5829 5830 5830 5830 5830 5830 5829 5831 5831 5832 5833 5833 5833 5834 5834 5833 5833 5832 5831 5831 5831 5831 5829 5828 5827 5825 5823 5820 5817 5813 5809 5806 5801 5796 5790 5784 5777 5771 5761 5751
5823 5824 5824 5825 5827 5826 5828 5828 5829 5830 5829 5828 5827 5829 5829 5831 5832 5830 5830 5831 5830 5830 5829 5828 5828 5829 5828 5827 5825 5824 5822 5820 5818 5814 5810 5806 5803 5798 5791 5784 5777 5768 5756 5745 5734
5819 5820 5823 5823 5824 5823 5824 5824 5824 5826 5824 5824 5826 5826 5827 5828 5830 5829 5829 5828 5828 5828 5827 5826 5826 5826 5826 5824 5822 5821 5820 5818 5815 5811 5807 5803 5799 5794 5787 5780 5771 5760 5747 5733 5726
5816 5818 5819 5819 5822 5823 5821 5822 5822 5822 5822 5822 5822 5823 5824 5825 5826 5826 5826 5826 5825 5825 5825 5824 5824 5823 5822 5821 5820 5819 5817 5814 5813 5808 5805 5800 5795 5790 5782 5775 5765 5752 5739 5730 5725
5811 5814 5816 5817 5818 5819 5819 5820 5819 5821 5821 5820 5819 5821 5822 5822 5822 5822 5823 5823 5822 5822 5822 5821 5821 5821 5820 5818 5818 5816 5814 5811 5809 5806 5802 5798 5791 5786 5780 5771 5760 5747 5736 5729 5724
5808 5808 5812 5813 5813 5817 5818 5816 5816 5816 5817 5817 5818 5818 5819 5819 5819 5819 5819 5819 5820 5819 5819 5819 5819 5818 5817 5816 5815 5813 5811 5808 5806 5803 5799 5794 5791 5782 5775 5766 5756 5745 5734 5728 5722
5804 5803 5805 5809 5812 5811 5814 5814 5815 5815 5814 5814 5815 5816 5815 5815 5816 5816 5816 5817 5816 5817 5817 5816 5815 5815 5814 5813 5812 5811 5808 5805 5803 5800 5796 5791 5785 5777 5771 5762 5753 5742 5732 5725 5720
5799 5799 5801 5805 5807 5808 5811 5810 5811 5812 5812 5812 5811 5812 5812 5812 5813 5812 5813 5813 5813 5813 5814 5813 5813 5812 5811 5810 5809 5807 5804 5802 5801 5797 5794 5789 5782 5776 5770 5760 5751 5740 5729 5722 5716
5793 5794 5796 5799 5803 5803 5806 5806 5808 5809 5808 5808 5808 5810 5809 5809 5809 5809 5809 5810 5810 5810 5810 5810 5809 5809 5808 5806 5806 5804 5801 5800 5798 5796 5792 5786 5780 5774 5767 5760 5750 5739 5729 5720 5713
5787 5788 5790 5795 5798 5798 5800 5802 5806 5805 5804 5805 5805 5805 5804 5805 5805 5805 5805 5806 5806 5806 5806 5805 5806 5805 5805 5803 5802 5801 5799 5797 5795 5793 5790 5785 5778 5773 5766 5758 5749 5740 5728 5718 5711
5779 5781 5784 5787 5792 5795 5795 5797 5798 5800 5801 5801 5801 5801 5801 5801 5801 5800 5802 5803 5802 5802 5802 5802 5801 5801 5801 5800 5799 5798 5796 5794 5793 5791 5788 5784 5778 5772 5766 5757 5749 5739 5728 5718 5709
5772 5774 5777 5781 5785 5789 5790 5791 5791 5793 5796 5797 5797 5798 5797 5798 5797 5797 5798 5798 5798 5798 5797 5798 5798 5797 5797 5797 5796 5795 5794 5791 5790 5788 5785 5781 5777 5771 5764 5757 5750 5740 5730 5720 5710
5763 5767 5771 5773 5780 5781 5783 5784 5786 5788 5789 5792 5792 5794 5794 5793 5794 5794 5794 5795 5794 5793 5793 5794 5794 5794 5793 5793 5793 5792 5791 5788 5787 5785 5783 5779 5775 5770 5763 5757 5751 5741 5732 5721 5711
5753 5758 5762 5766 5770 5773 5777 5779 5780 5782 5782 5787 5788 5789 5790 5791 5791 5791 5790 5790 5790 5789 5790 5790 5790 5790 5790 5789 5789 5790 5788 5786 5784 5782 5780 5777 5774 5768 5762 5755 5748 5741 5732 5722 5712
5743 5748 5753 5757 5762 5765 5768 5770 5773 5775 5774 5780 5783 5784 5785 5785 5786 5786 5786 5785 5785 5785 5785 5785 5786 5786 5786 5786 5786 5785 5785 5784 5782 5780 5778 5775 5773 5769 5763 5757 5750 5743 5735 5725 5714
5732 5738 5743 5747 5754 5756 5759 5763 5765 5763 5772 5773 5776 5778 5779 5780 5780 5781 5782 5781 5781 5781 5781 5781 5782 5782 5783 5783 5782 5782 5781 5781 5780 5778 5776 5773 5771 5768 5764 5758 5751 5744 5737 5727 5717
5720 5726 5732 5737 5742 5746 5750 5754 5753 5757 5764 5767 5769 5772 5774 5774 5775 5775 5776 5776 5776 5776 5776 5777 5779 5779 5779 5779 5779 5778 5778 5777 5776 5775 5774 5771 5769 5767 5763 5758 5752 5746 5739 5730 5721
5708 5715 5721 5726 5731 5735 5740 5742 5747 5751 5757 5761 5763 5765 5767 5768 5769 5769 5771 5772 5771 5771 5772 5772 5774 5775 5775 5775 5776 5775 5775 5774 5773 5772 5771 5770 5768 5766 5762 5758 5753 5748 5742 5734 5725
5696 5703 5708 5713 5718 5724 5730 5735 5738 5743 5747 5752 5756 5758 5760 5761 5763 5763 5764 5765 5766 5766 5766 5767 5768 5770 5771 5771 5771 5771 5771 5771 5769 5769 5769 5767 5765 5763 5761 5758 5753 5749 5743 5737 5729
5683 5689 5696 5700 5705 5712 5718 5724 5731 5735 5739 5743 5746 5749 5752 5753 5754 5756 5758 5758 5759 5760 5761 5761 5762 5766 5766 5766 5767 5767 5766 5766 5766 5765 5764 5764 5763 5760 5759 5757 5754 5749 5745 5739 5733
5671 5677 5684 5687 5693 5701 5709 5715 5722 5726 5730 5733 5737 5740 5743 5745 5746 5748 5751 5751 5752 5753 5755 5756 5755 5757 5759 5760 5761 5762 5762 5761 5761 5763 5761 5760 5760 5758 5756 5756 5753 5750 5746 5741 5736
5659 5665 5668 5672 5680 5691 5699 5705 5710 5716 5719 5723 5727 5730 5734 5736 5738 5740 5743 5743 5744 5745 5747 5749 5750 5752 5753 5755 5755 5756 5756 5757 5757 5757 5758 5757 5758 5755 5754 5754 5752 5750 5746 5742 5738
5642 5647 5653 5660 5670 5678 5684 5691 5697 5704 5709 5713 5718 5721 5724 5725 5729 5730 5733 5735 5737 5738 5739 5742 5744 5745 5747 5747 5749 5750 5750 5751 5752 5752 5752 5755 5753 5752 5752 5751 5750 5749 5746 5743 5740
5626 5631 5642 5651 5658 5666 5672 5681 5688 5692 5698 5703 5707 5711 5715 5717 5719 5721 5724 5727 5729 5730 5732 5734 5737 5739 5740 5741 5742 5743 5745 5744 5747 5747 5748 5750 5749 5748 5748 5748 5748 5747 5745 5743 5741
5612 5619 5630 5640 5645 5650 5657 5667 5674 5681 5686 5691 5697 5704 5705 5707 5711 5713 5716 5719 5721 5723 5724 5726 5730 5732 5734 5734 5735 5737 5739 5739 5741 5741 5742 5742 5746 5742 5744 5744 5744 5743 5742 5742 5740
5598 5609 5617 5625 5631 5637 5649 5657 5664 5669 5674 5680 5686 5690 5693 5699 5702 5704 5706 5710 5713 5716 5716 5718 5721 5724 5726 5727 5726 5732 5734 5731 5734 5735 5736 5738 5737 5738 5738 5739 5740 5740 5739 5739 5738